• Join FlightAware (Why Join?)
  • Login
  • US Flag GB Flag 
15:19 EST


 

Airport Tracker/Info


-or-


 

Live Flight TrackerFlight Track Log ✈ EJA929 ✈ 11-Jul-2013 ✈ KHOU - KBHM

Flight Track Log - Related Links

Times and Time Zones

All times are in EDT time to prevent confusion due to time zone crossing. See the EJA929 flight status page for this flight to view local times or setup timezone preferences in your user account.

Time Position Orientation Groundspeed Altitude Reporting Facility
EDT Latitude Longitude Course Direction KTS MPH feet Rate Location/Type
12:18 29.6317 -95.2247 92° East 233 268 3,000  Level Houston Center
12:19 29.7064 -95.2156 North 282 325 5,100 2,280 Climbing Houston Center
12:20 29.7769 -95.2528 335° Northwest 279 321 7,700 2,640 Climbing Houston Center
12:21 29.8500 -95.2919 335° Northwest 289 333 10,500 2,040 Climbing Houston Center
12:23 29.9794 -95.2467 17° North 335 386 12,900 1,500 Climbing Houston Center
12:24 30.0722 -95.1989 24° Northeast 358 412 14,400 1,440 Climbing Houston Center
12:25 30.1683 -95.1500 24° Northeast 373 429 15,900 1,320 Climbing Houston Center
12:26 30.2656 -95.1003 24° Northeast 379 436 17,200 1,260 Climbing Houston Center
12:27 30.3664 -95.0511 23° Northeast 389 448 18,600 1,440 Climbing Houston Center
12:28 30.4786 -94.9817 28° Northeast 393 452 20,200 1,440 Climbing Houston Center
12:29 30.5750 -94.9186 29° Northeast 396 456 21,600 1,440 Climbing Houston Center
12:30 30.6733 -94.8567 28° Northeast 401 461 23,200 1,500 Climbing Houston Center
12:31 30.7717 -94.7936 29° Northeast 403 464 24,700 1,440 Climbing Houston Center
12:32 30.8706 -94.7303 29° Northeast 405 466 26,200 1,500 Climbing Houston Center
12:33 30.9878 -94.6542 29° Northeast 404 465 27,900 1,500 Climbing Houston Center
12:34 31.0881 -94.5892 29° Northeast 413 475 29,400 1,440 Climbing Houston Center
12:35 31.1889 -94.5239 29° Northeast 422 486 30,900 1,440 Climbing Houston Center
12:36 31.2908 -94.4594 28° Northeast 424 488 32,400 1,560 Climbing Houston Center
12:37 31.4144 -94.3814 28° Northeast 425 489 34,200 1,560 Climbing Houston Center
12:38 31.5186 -94.3142 29° Northeast 428 493 35,700 1,440 Climbing Houston Center
12:39 31.6233 -94.2475 28° Northeast 429 494 37,200 1,320 Climbing Houston Center
12:40 31.7289 -94.1792 29° Northeast 432 497 38,500 840 Climbing Houston Center
12:42 31.8456 -94.1014 30° Northeast 441 507 39,000 240 Climbing Houston Center
12:43 31.9622 -94.0256 29° Northeast 472 543 39,000 240 Level Houston Center
12:44 32.0906 -93.9356 31° Northeast 482 555 39,600 480 Climbing Houston Center
12:45 32.1517 -93.7975 62° Northeast 478 550 40,000 180 Climbing Houston Center
12:46 32.1892 -93.6422 74° East 491 565 40,000 60 Level Houston Center
12:47 32.2419 -93.4197 74° East 474 545 40,200 360 Climbing Fort Worth Center
12:48 32.2808 -93.2656 73° East 480 552 40,900 360 Climbing Fort Worth Center
12:49 32.3153 -93.1142 75° East 480 552 41,000 120 Climbing Fort Worth Center
12:50 32.3525 -92.9822 72° East 475 547 41,200 600 Climbing Fort Worth Center
12:51 32.3889 -92.8303 74° East 475 547 42,200 900 Climbing Fort Worth Center
12:52 32.4306 -92.6583 74° East 484 557 43,000 360 Climbing Fort Worth Center
12:53 32.4686 -92.5086 73° East 484 557 43,000  Level Fort Worth Center
12:54 32.4989 -92.3764 75° East 479 551 43,000  Level Fort Worth Center
12:55 32.5361 -92.2192 74° East 479 551 43,000  Level Fort Worth Center
12:57 32.6058 -91.9306 74° East 504 580 43,000  Level Memphis Center
12:58 32.6389 -91.7708 76° East 494 568 43,000  Level Memphis Center
12:59 32.6781 -91.6183 73° East 488 562 43,000  Level Memphis Center
13:00 32.7131 -91.4586 75° East 488 562 43,000  Level Memphis Center
13:01 32.7581 -91.3033 71° East 488 562 43,000  Level Memphis Center
13:02 32.8175 -91.1558 64° Northeast 493 567 43,000  Level Memphis Center
13:03 32.8789 -91.0078 64° Northeast 493 567 43,000  Level Memphis Center
13:04 32.9403 -90.8597 64° Northeast 493 567 43,000  Level Memphis Center
13:05 32.9950 -90.7089 67° East 493 567 43,000  Level Memphis Center
13:06 33.0456 -90.5653 67° East 505 581 43,000  Level Memphis Center
13:07 33.0956 -90.4092 69° East 500 575 43,000  Level Memphis Center
13:08 33.1458 -90.2506 69° East 500 575 43,000 -360 Level Memphis Center
13:09 33.1978 -90.0742 71° East 505 581 42,300 -1,020 Descending Memphis Center
13:10 33.2472 -89.9100 70° East 510 587 41,000 -1,320 Descending Memphis Center
13:11 33.2925 -89.7433 72° East 521 600 39,700 -1,620 Descending Memphis Center
13:12 33.3333 -89.5717 74° East 526 605 37,800 -1,980 Descending Memphis Center
13:13 33.3633 -89.3972 78° East 526 605 35,800 -2,040 Descending Memphis Center
13:14 33.4142 -89.2322 70° East 531 611 33,800 -2,100 Descending Memphis Center
13:15 33.4772 -89.0672 65° Northeast 536 617 31,700 -1,920 Descending Memphis Center
13:16 33.5611 -88.9164 56° Northeast 541 623 30,000 -1,200 Descending Memphis Center
13:17 33.6386 -88.7753 57° Northeast 553 636 29,400 -1,200 Descending Memphis Center
13:18 33.6844 -88.6022 72° East 537 618 27,600 -1,920 Descending Memphis Center
13:20 33.6844 -88.2053 90° East 519 597 23,300 -1,860 Descending Memphis Center
13:21 33.6803 -88.0881 92° East 500 575 22,100 -1,620 Descending Memphis Center
13:22 33.6814 -87.9308 89° East 479 551 20,400 -1,740 Descending Memphis Center
13:23 33.6806 -87.7811 90° East 474 545 18,700 -1,740 Descending Memphis Center
13:24 33.6772 -87.6314 91° East 453 521 17,000 -1,860 Descending Memphis Center
13:25 33.6761 -87.4867 90° East 438 504 15,000 -2,040 Descending Memphis Center
13:26 33.6747 -87.3444 91° East 433 498 13,000 -1,980 Descending Memphis Center
13:27 33.6739 -87.2189 90° East 411 473 11,200 -1,680 Descending Atlanta Center
13:28 33.6725 -87.1067 91° East 368 423 9,800 -1,500 Descending Atlanta Center
13:29 33.6728 -87.0092 90° East 326 375 8,200 -1,800 Descending Atlanta Center
13:30 33.6708 -86.9142 91° East 295 339 6,300 -1,800 Descending Atlanta Center
13:31 33.6772 -86.8247 85° East 276 318 4,700 -1,500 Descending Atlanta Center
13:32 33.6942 -86.7153 79° East 254 292 3,000 -900 Descending Atlanta Center
13:33 33.7017 -86.6631 80° East 247 284 3,000  Level Atlanta Center
13:34 33.6564 -86.6242 144° Southeast 197 227 3,000 -420 Level Atlanta Center
13:35 33.6031 -86.6875 225° Southwest 188 216 2,100 -900 Descending Atlanta Center
13:36 33.5814 -86.7267 236° Southwest 128 147 1,100 -1,020 Descending Atlanta Center
13:38 33.5639 -86.7523 140° Southeast  Level Estimated
13:45 33.5639 -86.7523 140° Southeast  Level Estimated